Regional Weather Roundup
Issued by NWS Green Bay, WI

Home | Current Version | Previous Version | Text Only | Print | Product List | Glossary On
Versions: 1 2 3 4 5 6 7 8 9 10 11 12 13 14 15 16 17 18 19 20 21 22 23 24 25 26 27 28 29 30 31 32 33 34 35 36 37 38 39 40 41 42 43 44 45 46 47 48 49 50
133
ASUS43 KGRB 300500
RWRGRB

NORTH-CENTRAL AND NORTHEAST WISCONSIN REGIONAL WEATHER ROUNDUP
NATIONAL WEATHER SERVICE GREEN BAY WI
1200 AM CDT THU MAR 30 2017

WIZ005-009-010>012-018-019-300600-
NORTH CENTRAL WISCONSIN

CITY           SKY/WX    TMP DP  RH WIND       PRES   REMARKS
IRONWOOD       CLOUDY    38  28  67 E3        30.15F
MANITOWISH WTR NOT AVBL
ARBOR VITAE    NOT AVBL
EAGLE RIVER    NOT AVBL
LAND O LAKES   NOT AVBL
RHINELANDER    CLOUDY    37  27  67 E7        30.15F
PHILLIPS       MOCLDY    38  29  70 SE6       30.13F
ANTIGO         NOT AVBL
TOMAHAWK       NOT AVBL
MERRILL        NOT AVBL
$$

WIZ013-073-300600-
NORTHEAST WISCONSIN

CITY           SKY/WX    TMP DP  RH WIND       PRES   REMARKS
IRON MOUNTAIN  CLOUDY    35  22  58 VRB5      30.18F
MARINETTE      MOCLDY    34  27  75 MISG        N/A
$$

WIZ017-030-035>037-045-300600-
CENTRAL WISCONSIN

CITY           SKY/WX    TMP DP  RH WIND       PRES   REMARKS
MEDFORD        NOT AVBL
WAUSAU         CLOUDY    35  27  72 E10       30.12F
MOSINEE        NOT AVBL
MARSHFIELD     MIX PCPN  35  32  88 E10       30.10F
WISC RAPIDS    LGT SNOW  34  34 100 E12       30.12F FOG
STEVENS POINT  NOT AVBL
WAUPACA        NOT AVBL
SHAWANO        DRIZZLE   36  31  82 NE6       30.17F
CLINTONVILLE   LGT RAIN  34  32  93 NE7       30.15F
WAUTOMA        CLOUDY    35  32  88 E13       30.12F
$$

WIZ038-039-048-051-300600-
FOX VALLEY

CITY           SKY/WX    TMP DP  RH WIND       PRES   REMARKS
NWS GREEN BAY  LGT RAIN  36  34  92 NE10      30.16F
APPLETON       NOT AVBL
OSHKOSH        CLOUDY    37  31  78 NE13      30.12F
FOND DU LAC    LGT RAIN  39  30  70 NE12      30.12F
$$

WIZ022-050-052-300600-
EAST CENTRAL WISCONSIN

CITY           SKY/WX    TMP DP  RH WIND       PRES   REMARKS
EPHRAIM        NOT AVBL
WASHINGTON ISL NOT AVBL
STURGEON BAY   LGT RAIN  34  32  92 N3        30.19F
MANITOWOC      NOT AVBL
SHEBOYGAN      LGT RAIN  37  33  85 NE10      30.14F
$$

LMZ563-521-522-541>543-300600-
LAKESHORE

STATION/POSITION TIME  TEMP    WIND        PRES    VSBY  WAVE
                       AIR SEA DIR/SP/G                  HT/PER
                 (UTC) (F)     (DEG/KT/KT) (MB)    (MI)  (FT/S)
SHEBOYGAN LKSHOR 0400   37      20/ 11/ 12 1022.1F
KEWAUNEE LKSHORE 0430   36      30/  7/ 11 1021.7F
NORTHPORT PIER   0440   36      90/  8/ 11 1022.7F
CHAMBERS ISLAND  0440   33      20/  4/  7 1022.4F
MENOMINEE LKSHOR 0430   34      20/ 10/ 12 1022.1F
$$




USA.gov is the U.S. government's official web portal to all federal, state and local government web resources and services.